Overview Statistics Trail Chart Weather Telemetry Raw packets
 

This is the latest recevied weather packets stored in our database for station/object DL2AKT-20. If no packets are shown the sender has not sent any weather packets the latest 10 day(s).

<< 25 26 27 28 29 30 31 >>
Time Temp. Humidity Pressure Rain* Wind** Luminosity Snow
1777605567 12.22° C 39% 1031.6 hPa - - - -
1777604667 11.11° C 40% 1031.4 hPa - - - -
1777603767 11.67° C 40% 1031.4 hPa - - - -
1777602867 11.67° C 40% 1031.4 hPa - - - -
1777601969 11.67° C 39% 1031.6 hPa - - - -
1777601067 12.22° C 38% 1031.5 hPa - - - -
1777600167 12.22° C 38% 1031.6 hPa - - - -
1777599267 12.78° C 37% 1031.6 hPa - - - -
1777598367 13.33° C 37% 1031.6 hPa - - - -
1777597467 13.33° C 36% 1031.7 hPa - - - -
1777596568 13.33° C 36% 1031.7 hPa - - - -
1777595668 12.22° C 38% 1031.7 hPa - - - -
1777594768 13.33° C 36% 1031.6 hPa - - - -
1777593868 13.33° C 36% 1031.7 hPa - - - -
1777592968 13.33° C 35% 1031.6 hPa - - - -
1777592068 13.33° C 36% 1031.7 hPa - - - -
1777591168 13.33° C 36% 1031.8 hPa - - - -
1777590268 13.89° C 35% 1031.8 hPa - - - -
1777589368 13.89° C 35% 1031.7 hPa - - - -
1777588468 13.33° C 36% 1031.7 hPa - - - -
1777587568 13.89° C 34% 1031.8 hPa - - - -
1777586668 13.89° C 35% 1031.8 hPa - - - -
1777585767 13.89° C 35% 1031.8 hPa - - - -
1777584867 13.89° C 35% 1031.7 hPa - - - -
1777583967 15° C 33% 1031.9 hPa - - - -

* Rain since midnight (hover to see other rain measurements)
** Current wind speed in m/s (hover to see current wind gust speed)